Мукры

Туркменистан     37°35′43″N   65°43′40″E
темп.,
°C
ветер,
м/с
пор.,
м/с
влажн.,
%
обл.,
%
осадки,
мм/ч
давл.,
гПа
погр.,
м
11 апреля, вс
вс1123:00+23ссв45260 0.0 101545
02:00+22ссв44280 0.0 101420
05:00+20ссв33310 0.0 101511
08:00+21ююв33290 0.0 1017113
11:00+26ю22200 0.0 1017711
14:00+28зюз12150 0.0 10152507
17:00+28сз12130 0.0 10142472
20:00+26ссз44190 0.0 101440
12 апреля, пн
пн1223:00+22с46300 0.0 101486
02:00+20ссз33355 0.0 101434
05:00+18ссз33372 0.0 101521
08:00+18сз343233 0.0 1017138
11:00+23з21234 0.0 1017595
14:00+27ссз321875 0.0 10151276
17:00+28ссз4315100 0.0 10131555
20:00+24ссз8720100 0.0 1015529
13 апреля, вт
вт1323:00+22с91224100 0.0 1016414
02:00+20с6103398 0.0 1016298
05:00+20сз344334 0.0 101679
08:00+19сз563621 0.0 1019309
11:00+23ссз22245 0.0 1019761
14:00+25ссз21212 0.0 10171535
17:00+26сз321943 0.0 10161366
20:00+24ссз462451 0.0 1016119
14 апреля, ср
ср1423:00+22с342780 0.0 101645
02:00+21сз332754 0.0 101515
05:00+20с22338 0.0 101411
08:00+22з1128100 0.0 101581
11:00+24с1126100 0.0 1014805
14:00+28ссв222399 0.0 10111433
17:00+29ссз5421100 0.0 10101561
20:00+26ссз61027100 0.0 1010262
15 апреля, чт
чт1523:00+23с61033100 0.0 1010207
02:00+22ссз5835100 0.0 1009143
05:00+20сз5731100 0.0 1010113
08:00+21зсз5725100 0.0 1011191
11:00+26сз6714100 0.0 1012946
14:00+27сз6614100 0.0 10121777
17:00+27ссз661549 0.0 10121789
20:00+24с4621100 0.0 1012100